Flag for U.S.A. Weather past 2 weeks in Palm Springs, California, U.S.A.

Now
56 °F

Clear.


Feels Like: 55 °F
Forecast: 49 / 74 °F
Wind: 6 mph from West

Location: Palm Springs Regional Airport

Current Time: Mar 5, 2015 at 4:50:59 AM

Latest Report: Mar 5, 2015 at 3:53 AM


Visibility: 10 mi

Pressure: 30.23 "Hg

Humidity: 27%

Dew point: 22 °F

Location of Palm SpringsLocation

Historic Weather in Palm Springs — Graph

°F

Palm Springs temperature yesterday

Maximum temperature yesterday: 72 °F (at 2:53 PM)
Minimum temperature yesterday: 52 °F (at 2:53 AM)
Average temperature yesterday: 62 °F

Past Weeks' High & Low Weather Summary

 TemperatureHumidityPressure
High85 °F (Feb 19, 1:53 PM)100% (Mar 1, 7:53 PM)30.23 "Hg (Mar 1, 7:53 PM)
Low46 °F (Mar 3, 1:53 AM)9% (Feb 20, 3:53 PM)29.62 "Hg (Feb 27, 4:53 PM)
Average64 °F43%29.93 "Hg
* Reported Feb 18 3:53 AM — Mar 5 3:53 AM, Palm Springs, Weather by CustomWeather, © 2015

Note: Actual official high and low records may vary slightly from our data, if they occured in-between our weather recording intervals... More about our weather records

Advertising

Palm Springs weather history for previous 24 hours

 ConditionsComfort  
Time TempWeatherWind HumidityBarometerVisibility
3:53 AM
Thu, Mar 5
56 °FClear.6 mph27%30.23 "Hg10 mi
2:53 AM57 °FClear.6 mph25%30.22 "Hg10 mi
1:53 AM56 °FClear.7 mph27%30.23 "Hg10 mi
12:53 AM57 °FClear.6 mph27%30.22 "Hg10 mi
11:53 PM
Wed, Mar 4
58 °FClear.6 mph24%30.21 "Hg10 mi
10:53 PM59 °FClear.6 mph23%30.21 "Hg10 mi
9:53 PM60 °FClear.5 mph21%30.20 "Hg10 mi
8:53 PM60 °FClear.6 mph24%30.18 "Hg10 mi
7:53 PM63 °FClear.6 mph19%30.15 "Hg10 mi
6:53 PM66 °FClear.5 mph15%30.13 "Hg10 mi
5:53 PM69 °FClear.3 mph12%30.11 "Hg10 mi
4:53 PM71 °FSunny.No wind9%30.09 "Hg10 mi
3:53 PM72 °FSunny.3 mph9%30.08 "Hg10 mi
2:53 PM72 °FSunny.7 mph9%30.08 "Hg10 mi
1:53 PM71 °FSunny.7 mph10%30.09 "Hg10 mi
12:53 PM70 °FSunny.3 mph10%30.09 "Hg10 mi
11:53 AM67 °FSunny.No wind13%30.11 "Hg10 mi
10:53 AM66 °FSunny.6 mph16%30.12 "Hg10 mi
9:53 AM64 °FSunny.3 mph17%30.12 "Hg10 mi
8:53 AM64 °FSunny.8 mph18%30.11 "Hg10 mi
7:53 AM62 °FSunny.5 mph19%30.10 "Hg10 mi
6:53 AM59 °FSunny.3 mph27%30.07 "Hg10 mi
5:53 AM53 °FClear.5 mph43%30.04 "Hg10 mi
4:53 AM54 °FClear.5 mph55%30.02 "Hg10 mi
Weather by CustomWeather, © 2015

See weather overviewHow to use our weather pages